Wind_Speed
41 40 40 39 39 39 40 40 41 40 39 36 35 36 35 33 31 31 30 31 31 30 29 29 31 31 32 32 33 35 35 35 36 37 38 38 38 39 40 39 40 41 41 42
42 41 42 42 39 38 39 40 40 39 37 35 36 36 34 32 30 30 30 30 30 30 30 30 30 31 32 33 33 33 34 34 34 37 38 37 37 38 40 39 40 40 41 41
44 42 44 44 39 39 39 39 39 38 36 36 36 35 33 32 31 31 31 30 30 30 30 30 31 31 31 32 33 33 34 35 35 36 37 38 38 38 38 38 40 39 41 41
45 45 46 43 40 40 40 39 38 38 36 36 36 34 32 32 32 32 31 30 31 31 31 30 30 30 30 31 32 33 35 36 38 38 37 38 38 38 38 38 38 39 40 41
45 46 47 42 40 40 41 39 38 38 36 36 36 34 32 33 33 32 32 32 32 32 31 30 30 31 30 30 30 31 33 35 37 39 38 38 39 39 40 39 39 39 38 40
45 46 46 41 40 40 42 41 38 38 37 36 35 35 32 32 32 32 32 32 32 32 31 30 30 30 30 30 30 30 31 33 35 36 37 38 38 39 39 40 40 39 38 39
43 45 45 42 41 41 41 40 38 38 37 36 35 34 32 31 32 31 31 31 30 30 30 30 30 29 29 29 29 30 30 31 33 34 36 37 39 40 39 39 39 38 38 38
42 44 43 41 42 41 40 39 38 37 36 36 35 34 33 32 31 31 30 30 29 28 28 29 29 29 28 28 28 28 29 30 31 33 35 36 38 38 38 39 39 39 38 38
43 42 41 41 41 40 39 39 38 37 37 36 35 33 32 32 31 30 29 29 28 27 27 27 27 27 27 27 27 27 27 28 29 31 33 34 35 37 37 38 38 37 38 38
42 40 40 39 39 39 39 39 38 37 36 35 34 32 31 31 30 30 29 28 28 27 26 26 26 26 27 27 27 27 27 27 28 30 31 33 34 36 37 37 37 37 38 38
41 39 39 38 38 38 37 37 37 36 35 35 34 32 31 30 30 29 28 28 28 27 26 26 26 26 26 26 27 27 27 28 29 29 30 31 33 34 35 36 36 36 37 38
40 38 40 38 37 36 36 36 36 35 35 34 34 32 31 30 29 28 28 28 28 27 26 26 27 27 26 26 26 27 28 28 28 29 29 30 31 32 33 35 35 35 36 36
38 37 38 37 35 35 35 35 34 34 33 32 31 31 30 29 28 28 28 27 27 27 26 26 26 26 26 26 26 27 27 27 27 28 29 29 29 31 32 34 34 34 34 35
36 36 36 34 34 33 32 32 32 32 31 30 29 28 28 27 27 27 27 27 27 26 26 26 26 26 26 27 27 27 27 26 26 27 28 29 29 30 31 33 33 34 34 34
34 34 34 32 31 30 30 30 30 30 29 29 28 28 27 27 26 26 26 26 26 26 26 26 26 26 26 26 27 27 27 26 26 27 28 28 28 29 30 31 31 32 33 33
31 31 31 30 29 29 29 30 29 29 28 28 27 27 27 26 26 25 25 25 24 24 25 25 25 25 25 25 25 25 26 26 26 27 28 28 28 29 29 30 30 30 31 31
28 28 28 28 29 29 29 29 28 27 26 26 26 26 25 25 25 25 25 24 24 24 24 24 24 24 24 24 24 24 24 24 25 26 27 27 28 28 28 28 28 29 29 29
26 27 27 28 28 28 28 28 27 26 25 25 25 25 24 24 24 24 24 24 24 24 23 23 22 23 23 23 22 22 22 23 24 25 26 26 27 27 27 27 27 27 28 28
25 26 26 26 26 26 25 25 25 25 25 25 25 25 24 24 25 25 25 24 23 23 22 23 22 22 22 23 22 22 22 23 23 24 25 25 26 27 27 27 27 27 28 28
24 24 24 25 24 24 24 24 24 24 25 25 25 24 24 24 25 25 25 24 24 23 23 23 22 23 23 23 23 23 23 22 23 24 25 25 25 26 26 26 27 27 28 28
23 23 23 23 23 23 23 23 23 24 24 25 25 24 24 24 24 23 23 23 23 23 23 23 22 22 23 23 23 23 23 23 23 24 25 26 26 26 26 26 26 28 27 27
22 23 23 23 23 23 23 24 24 24 24 24 24 24 23 23 23 22 23 23 23 23 22 22 22 21 22 22 23 23 23 23 23 23 25 26 26 26 26 26 26 27 27 27
22 22 23 23 24 23 23 23 24 24 23 23 22 22 22 22 22 22 23 23 22 22 21 21 21 21 21 22 22 23 22 23 23 23 24 25 26 26 26 25 25 26 26 27
23 23 23 23 23 23 23 23 23 23 22 22 22 22 22 21 21 22 22 22 21 21 21 21 21 21 20 21 22 22 22 22 22 22 23 24 24 24 25 25 25 25 25 25
23 23 22 22 22 22 22 22 21 21 20 20 21 20 20 20 20 20 20 20 19 19 19 20 20 19 19 20 21 21 20 20 21 22 22 22 22 23 23 24 24 25 24 24
22 22 22 22 22 21 20 20 19 19 19 19 19 19 19 19 18 18 18 18 18 18 19 19 19 18 18 18 19 19 19 19 19 20 20 21 21 22 22 23 24 24 23 23
21 21 21 21 21 20 19 19 18 18 18 18 17 17 17 17 16 17 17 17 18 18 18 18 18 18 17 17 18 18 18 18 18 19 20 21 21 21 21 21 22 23 23 23
Wind_Direction
284 285 285 286 289 292 292 293 293 295 295 298 295 296 295 292 288 282 277 273 271 271 270 266 259 256 254 254 253 250 251 249 247 245 243 241 238 236 235 235 232 231 232 232
282 283 283 283 287 290 290 291 293 293 295 294 291 292 291 290 286 282 277 275 273 271 269 266 263 260 256 255 254 252 251 250 247 244 242 240 239 238 235 234 233 233 233 233
282 282 281 282 288 287 288 290 291 292 294 292 290 289 287 286 284 282 278 274 273 272 270 269 264 261 258 255 254 252 253 250 246 244 242 240 240 240 238 236 234 234 235 235
282 282 280 285 285 285 286 287 290 291 292 291 289 287 286 285 284 282 278 274 273 273 271 268 265 261 260 258 255 255 254 249 246 244 242 240 239 240 239 236 234 233 234 234
281 282 283 284 285 285 285 286 288 289 290 289 287 285 284 282 283 281 277 276 275 274 271 268 265 262 260 259 258 257 253 248 246 243 241 240 241 240 238 236 234 233 234 234
280 281 283 286 284 284 285 286 286 286 287 287 286 284 283 280 279 278 277 277 276 274 270 268 266 263 261 258 257 256 253 248 245 243 242 241 241 239 238 236 235 235 234 234
278 280 281 284 285 286 286 288 287 285 286 285 283 282 281 278 278 276 275 276 275 274 270 268 266 264 261 258 256 255 253 250 246 245 243 242 241 240 239 238 236 234 233 234
277 278 281 284 283 284 285 285 285 284 284 283 281 279 278 278 277 275 275 275 275 274 271 267 265 264 261 259 257 255 253 250 246 244 242 241 240 240 239 237 236 233 233 234
276 278 281 281 282 282 282 282 283 283 282 282 281 279 278 277 276 274 273 273 274 273 270 267 264 261 260 259 258 255 253 250 246 243 241 239 239 239 239 236 234 233 234 234
275 278 279 280 280 280 279 280 281 281 280 280 280 279 277 275 274 273 272 273 273 272 269 266 264 261 259 258 257 255 253 251 248 245 243 241 239 237 236 234 232 233 233 234
276 278 278 277 278 277 277 278 278 279 279 279 279 277 276 274 273 273 273 273 272 270 268 265 264 262 259 258 257 254 253 252 250 247 244 241 238 235 234 232 232 232 232 234
276 276 276 276 276 276 276 276 277 277 277 278 277 275 274 273 273 272 272 272 271 270 269 265 262 260 258 257 257 254 253 252 249 247 244 242 238 234 232 232 232 232 233 234
275 275 274 275 277 277 277 276 276 276 276 276 276 275 274 273 271 270 271 271 270 269 267 265 263 260 257 256 257 254 251 249 247 243 241 240 237 233 231 232 233 232 232 234
274 274 274 276 277 278 277 277 276 276 275 275 275 274 274 273 271 270 269 269 269 268 267 266 264 261 257 256 256 253 250 248 245 241 239 238 235 233 231 231 232 231 231 233
272 273 274 276 277 277 277 276 276 276 275 274 273 271 271 271 270 269 269 269 269 268 267 265 263 261 257 255 254 251 248 247 245 240 237 237 236 234 233 233 232 231 231 232
271 272 274 275 276 276 277 277 275 275 275 273 271 270 270 270 269 269 269 268 268 268 268 266 264 261 255 253 253 249 247 247 243 238 236 234 232 233 234 234 232 231 231 231
271 271 274 275 276 277 277 275 274 274 273 272 271 271 270 269 267 267 267 267 267 268 268 267 263 258 253 251 249 247 246 244 240 236 233 232 232 234 234 233 233 232 231 231
272 273 275 277 277 278 277 275 273 272 272 272 271 271 270 269 268 268 267 267 267 267 267 265 262 258 253 249 245 243 242 240 237 234 234 233 233 233 233 232 232 233 232 232
274 275 276 277 278 277 276 274 272 272 271 271 271 272 271 268 267 268 267 266 264 264 264 262 261 257 251 247 244 241 239 238 236 234 232 232 231 230 230 231 232 234 234 234
274 275 276 277 279 278 275 273 273 272 271 272 272 271 270 269 268 267 265 264 263 262 261 260 259 255 250 245 242 240 239 238 236 234 233 233 232 229 230 232 233 233 234 233
274 275 276 277 279 277 276 275 274 273 273 272 271 269 268 268 268 266 263 261 260 259 258 258 256 253 249 244 241 240 239 239 238 236 234 233 233 232 232 233 233 232 233 231
278 277 277 279 280 279 278 277 276 275 273 271 270 268 268 268 267 265 263 261 259 258 257 256 253 250 247 243 239 238 238 239 239 238 235 233 232 233 232 232 232 231 231 229
281 280 280 281 281 279 279 278 278 276 274 271 270 269 269 268 267 265 263 260 258 258 256 253 250 248 245 241 239 238 239 240 240 238 235 233 232 231 231 230 229 228 226 224
282 282 282 282 282 280 278 278 277 276 273 271 270 269 268 266 266 265 262 258 256 255 252 250 249 247 245 243 241 240 241 240 238 235 233 230 228 227 227 225 224 221 220 219
283 282 282 283 283 281 279 277 276 275 274 273 271 269 267 265 264 263 259 255 252 251 249 247 246 244 244 243 241 240 240 236 234 230 226 225 223 222 221 219 217 215 215 214
280 280 281 282 282 281 279 277 275 274 273 273 270 266 265 263 262 260 256 253 250 247 245 243 243 242 242 240 236 234 233 231 228 223 220 220 218 216 214 213 212 212 211 211
279 280 281 282 282 280 277 275 274 273 273 273 269 264 262 260 259 257 255 251 248 246 244 243 242 239 237 234 230 227 226 225 222 219 216 213 210 207 206 207 208 210 211 212
Height
5558 5557 5553 5552 5550 5547 5542 5538 5533 5531 5528 5528 5523 5519 5516 5513 5511 5510 5510 5510 5510 5510 5510 5510 5510 5511 5512 5513 5514 5516 5518 5520 5522 5526 5529 5532 5536 5540 5544 5549 5555 5561 5566 5572
5548 5547 5543 5541 5542 5539 5534 5530 5525 5522 5521 5520 5515 5512 5510 5507 5506 5505 5504 5504 5504 5503 5503 5503 5503 5503 5504 5505 5507 5508 5510 5512 5514 5517 5521 5524 5528 5532 5536 5541 5547 5552 5557 5563
5535 5535 5531 5532 5535 5530 5525 5522 5518 5514 5514 5511 5508 5505 5503 5501 5499 5498 5497 5497 5496 5496 5495 5495 5495 5495 5496 5497 5499 5500 5501 5503 5506 5509 5512 5516 5520 5524 5528 5533 5538 5544 5549 5555
5522 5523 5519 5526 5523 5519 5515 5513 5510 5506 5504 5501 5498 5497 5496 5493 5492 5491 5489 5489 5488 5487 5487 5487 5487 5488 5488 5489 5490 5491 5493 5495 5497 5500 5504 5508 5512 5516 5520 5525 5530 5536 5541 5547
5510 5507 5507 5513 5512 5507 5503 5503 5502 5497 5495 5492 5489 5489 5489 5486 5484 5483 5482 5481 5480 5479 5479 5479 5479 5479 5480 5481 5482 5483 5484 5486 5489 5492 5495 5499 5503 5507 5512 5517 5522 5528 5533 5539
5500 5496 5496 5503 5501 5496 5493 5492 5493 5488 5485 5483 5481 5480 5481 5478 5476 5475 5473 5472 5471 5471 5471 5471 5471 5471 5472 5473 5473 5474 5476 5478 5480 5483 5487 5490 5494 5499 5503 5508 5514 5519 5524 5530
5490 5485 5485 5492 5489 5486 5484 5483 5480 5478 5475 5473 5472 5470 5470 5469 5467 5466 5465 5464 5463 5463 5462 5462 5462 5463 5464 5464 5466 5467 5468 5470 5472 5475 5478 5482 5486 5490 5495 5499 5505 5510 5516 5522
5479 5476 5479 5480 5476 5475 5473 5471 5469 5467 5465 5463 5462 5461 5460 5460 5459 5458 5457 5456 5455 5455 5454 5454 5454 5454 5456 5457 5458 5459 5460 5462 5464 5467 5470 5473 5477 5481 5486 5491 5496 5502 5508 5514
5468 5469 5470 5467 5465 5463 5461 5459 5458 5456 5455 5454 5453 5452 5451 5451 5450 5449 5449 5448 5447 5447 5446 5446 5446 5447 5448 5449 5450 5451 5452 5454 5456 5458 5462 5465 5469 5473 5477 5482 5488 5494 5500 5506
5456 5458 5458 5456 5454 5452 5450 5448 5447 5446 5445 5444 5443 5442 5442 5441 5441 5441 5440 5440 5439 5439 5439 5439 5439 5439 5440 5441 5442 5443 5444 5446 5448 5450 5454 5457 5461 5464 5469 5474 5480 5485 5491 5497
5445 5447 5445 5445 5443 5441 5439 5438 5437 5436 5435 5434 5433 5433 5432 5432 5432 5432 5432 5431 5431 5431 5431 5431 5431 5432 5433 5434 5434 5435 5437 5438 5440 5443 5446 5449 5453 5456 5461 5466 5472 5478 5483 5489
5434 5435 5432 5432 5432 5430 5429 5428 5427 5426 5426 5425 5424 5423 5423 5423 5423 5423 5423 5423 5423 5423 5423 5423 5424 5424 5425 5426 5427 5428 5429 5431 5433 5435 5438 5441 5445 5449 5453 5458 5464 5469 5475 5480
5422 5422 5420 5420 5420 5419 5418 5418 5417 5416 5416 5415 5415 5414 5414 5414 5415 5415 5415 5415 5415 5415 5415 5415 5416 5416 5417 5418 5419 5420 5422 5423 5425 5427 5430 5434 5438 5442 5446 5451 5456 5461 5466 5472
5412 5410 5410 5411 5410 5410 5408 5408 5407 5407 5406 5406 5405 5405 5405 5406 5406 5406 5406 5406 5406 5407 5407 5407 5408 5408 5409 5410 5411 5412 5413 5415 5418 5420 5423 5427 5430 5434 5439 5444 5448 5453 5458 5463
5402 5401 5401 5401 5401 5400 5399 5398 5398 5398 5397 5397 5397 5397 5397 5398 5398 5398 5398 5398 5398 5399 5399 5399 5399 5400 5401 5402 5403 5404 5406 5408 5410 5413 5416 5419 5423 5427 5432 5436 5441 5445 5450 5455
5392 5392 5392 5392 5391 5391 5390 5389 5389 5389 5388 5388 5388 5389 5389 5389 5389 5390 5390 5390 5390 5390 5390 5390 5391 5391 5392 5393 5394 5396 5398 5400 5402 5405 5409 5412 5416 5420 5425 5429 5433 5438 5442 5447
5383 5384 5383 5383 5383 5382 5381 5381 5380 5380 5380 5380 5380 5380 5380 5380 5381 5381 5381 5382 5382 5382 5382 5382 5382 5383 5384 5385 5387 5389 5390 5393 5395 5398 5402 5405 5409 5413 5418 5422 5426 5430 5435 5439
5375 5375 5375 5375 5374 5374 5373 5372 5372 5372 5372 5372 5372 5372 5372 5372 5372 5373 5373 5374 5374 5374 5374 5374 5374 5375 5376 5378 5380 5382 5384 5386 5388 5392 5395 5399 5402 5406 5411 5415 5419 5423 5427 5431
5368 5368 5367 5367 5366 5366 5365 5364 5364 5364 5364 5364 5364 5364 5364 5364 5364 5365 5365 5365 5366 5366 5367 5367 5367 5368 5369 5371 5373 5375 5377 5380 5382 5385 5388 5392 5395 5400 5404 5408 5412 5416 5420 5424
5360 5360 5360 5359 5359 5358 5357 5357 5357 5356 5356 5356 5356 5356 5356 5356 5356 5356 5357 5357 5357 5358 5359 5359 5360 5361 5362 5363 5366 5368 5371 5373 5376 5378 5382 5385 5389 5393 5397 5401 5404 5409 5413 5417
5353 5353 5352 5352 5351 5351 5350 5350 5349 5349 5348 5348 5348 5347 5347 5347 5347 5347 5348 5349 5349 5349 5350 5351 5352 5353 5355 5356 5358 5361 5364 5366 5369 5372 5375 5378 5382 5386 5390 5394 5397 5401 5405 5410
5346 5346 5345 5345 5344 5343 5343 5342 5342 5341 5340 5340 5339 5339 5339 5339 5339 5339 5340 5340 5341 5342 5343 5344 5345 5346 5347 5349 5351 5354 5356 5359 5361 5364 5368 5371 5375 5379 5383 5387 5391 5395 5399 5403
5339 5339 5338 5337 5337 5336 5335 5334 5334 5333 5332 5332 5331 5331 5331 5331 5331 5332 5332 5333 5333 5334 5335 5336 5337 5339 5340 5342 5345 5347 5350 5352 5354 5357 5360 5364 5368 5372 5376 5380 5384 5388 5392 5397
5332 5332 5331 5330 5329 5329 5328 5327 5326 5325 5324 5324 5324 5323 5323 5323 5323 5323 5324 5325 5325 5327 5328 5329 5331 5332 5334 5336 5338 5340 5343 5345 5347 5350 5353 5357 5361 5365 5369 5373 5378 5382 5386 5391
5325 5324 5323 5323 5322 5321 5320 5319 5318 5318 5317 5317 5316 5316 5316 5316 5316 5316 5317 5317 5319 5320 5321 5323 5324 5326 5327 5329 5331 5334 5336 5338 5341 5344 5347 5351 5355 5359 5363 5368 5372 5377 5382 5386
5318 5317 5316 5315 5314 5314 5313 5312 5312 5311 5310 5310 5310 5309 5309 5309 5309 5310 5310 5311 5312 5314 5315 5317 5319 5320 5322 5324 5326 5328 5331 5333 5336 5339 5343 5347 5351 5355 5359 5364 5368 5373 5377 5382
5311 5310 5309 5309 5307 5307 5306 5306 5305 5305 5304 5304 5304 5303 5303 5303 5304 5304 5305 5306 5307 5308 5309 5311 5313 5315 5317 5319 5321 5324 5327 5329 5332 5336 5339 5343 5347 5351 5356 5360 5364 5369 5373 5378